• In Kazakhstan
  • List of Countries
  • For 7 days
  • Water Temperature
  • Satellite Maps
  • Weather Map
  • News
  • Weather Widgets
  • user-avatar
    Login

    Hourly Weather Mozdok

    Today, 19 February, Tuesday

    Time Temperature Precipitation Wind Pressure Humidity
    00:00 -11°C° 0 mm 6 mps 749 mmHg 84%
    01:00 -12°C° 0 mm 5 mps 749 mmHg 85%
    02:00 -12°C° 0 mm 5 mps 750 mmHg 87%
    03:00 -13°C° 0 mm 5 mps 750 mmHg 88%
    04:00 -13°C° 0 mm 5 mps 750 mmHg 89%
    05:00 -14°C° 0 mm 4 mps 751 mmHg 90%
    06:00 -14°C° 0 mm 4 mps 752 mmHg 91%
    07:00 -14°C° 0 mm 4 mps 752 mmHg 90%
    08:00 -14°C° 0 mm 4 mps 753 mmHg 90%
    09:00 -12°C° 0 mm 4 mps 753 mmHg 90%
    10:00 -12°C° 0 mm 4 mps 753 mmHg 88%
    11:00 -10°C° 0 mm 3 mps 753 mmHg 87%
    12:00 -9°C° 0 mm 3 mps 753 mmHg 85%
    13:00 -8°C° 0 mm 3 mps 753 mmHg 85%
    14:00 -8°C° 0 mm 3 mps 753 mmHg 84%
    15:00 -8°C° 0 mm 4 mps 753 mmHg 84%
    16:00 -9°C° 0 mm 4 mps 753 mmHg 86%
    17:00 -10°C° 0 mm 4 mps 752 mmHg 88%
    18:00 -10°C° 0 mm 4 mps 752 mmHg 89%
    19:00 -10°C° 0 mm 4 mps 752 mmHg 89%
    20:00 -11°C° 0 mm 5 mps 751 mmHg 89%
    21:00 -11°C° 0 mm 5 mps 751 mmHg 90%
    22:00 -11°C° 0 mm 5 mps 751 mmHg 90%
    23:00 -11°C° 0 mm 5 mps 751 mmHg 90%

    Tomorrow, 20 February, Wednesday

    Time Temperature Precipitation Wind Pressure Humidity
    00:00 -11°C° 0 mm 5 mps 750 mmHg 91%
    01:00 -11°C° 0 mm 5 mps 750 mmHg 90%
    02:00 -11°C° 0 mm 5 mps 750 mmHg 90%
    03:00 -11°C° 0 mm 5 mps 750 mmHg 90%
    04:00 -11°C° 0 mm 5 mps 749 mmHg 89%
    05:00 -11°C° 0 mm 5 mps 749 mmHg 88%
    06:00 -11°C° 0 mm 5 mps 748 mmHg 88%
    07:00 -11°C° 0 mm 5 mps 748 mmHg 87%
    08:00 -10°C° 0 mm 6 mps 747 mmHg 86%
    09:00 -10°C° 0 mm 6 mps 747 mmHg 85%
    10:00 -9°C° 0 mm 6 mps 747 mmHg 83%
    11:00 -7°C° 0 mm 7 mps 746 mmHg 82%
    12:00 -6°C° 0 mm 7 mps 746 mmHg 80%
    13:00 -6°C° 0 mm 7 mps 746 mmHg 80%
    14:00 -4°C° 0 mm 7 mps 745 mmHg 80%
    15:00 -4°C° 0 mm 7 mps 745 mmHg 81%
    16:00 -4°C° 0 mm 6 mps 745 mmHg 83%
    17:00 -4°C° 0 mm 6 mps 745 mmHg 86%
    18:00 -4°C° 0 mm 6 mps 744 mmHg 89%
    19:00 -4°C° 0 mm 6 mps 744 mmHg 90%
    20:00 -4°C° 0 mm 6 mps 744 mmHg 91%
    21:00 -4°C° 0 mm 6 mps 744 mmHg 92%
    22:00 -3°C° 0.1 mm 6 mps 743 mmHg 92%
    23:00 -3°C° 0.1 mm 6 mps 743 mmHg 92%

    Day after tomorrow, 21 February, Thursday

    Time Temperature Precipitation Wind Pressure Humidity
    00:00 -3°C° 0.1 mm 6 mps 742 mmHg 92%
    01:00 -3°C° 0.2 mm 6 mps 742 mmHg 93%
    02:00 -1°C° 0.2 mm 5 mps 742 mmHg 93%
    03:00 -1°C° 0.2 mm 5 mps 742 mmHg 94%
    04:00 -1°C° 0 mm 5 mps 741 mmHg 94%
    05:00 -2°C° 0 mm 5 mps 741 mmHg 95%
    06:00 -2°C° 0 mm 5 mps 740 mmHg 95%
    07:00 -2°C° 0 mm 5 mps 740 mmHg 95%
    08:00 -3°C° 0 mm 6 mps 740 mmHg 95%
    09:00 -3°C° 0 mm 6 mps 739 mmHg 95%
    10:00 -3°C° 0.1 mm 6 mps 739 mmHg 95%
    11:00 -3°C° 0.1 mm 6 mps 739 mmHg 95%
    12:00 -3°C° 0.1 mm 6 mps 738 mmHg 94%
    13:00 -3°C° 0.4 mm 6 mps 738 mmHg 92%
    14:00 -3°C° 0.4 mm 6 mps 738 mmHg 90%
    15:00 -2°C° 0.4 mm 5 mps 738 mmHg 87%
    16:00 -5°C° 0 mm 5 mps 738 mmHg 88%
    17:00 -5°C° 0 mm 4 mps 738 mmHg 88%
    18:00 -8°C° 0 mm 4 mps 739 mmHg 88%
    19:00 -8°C° 0 mm 4 mps 739 mmHg 89%
    20:00 -7°C° 0 mm 4 mps 739 mmHg 90%
    21:00 -7°C° 0 mm 4 mps 739 mmHg 90%
    22:00 -7°C° 0.1 mm 4 mps 739 mmHg 90%
    23:00 -7°C° 0.1 mm 5 mps 738 mmHg 91%

    22 February, Friday

    Time Temperature Precipitation Wind Pressure Humidity
    00:00 -7°C° 0.1 mm 5 mps 738 mmHg 91%
    01:00 -7°C° 0.1 mm 5 mps 738 mmHg 91%
    02:00 -7°C° 0.1 mm 5 mps 738 mmHg 92%
    03:00 -7°C° 0.1 mm 5 mps 738 mmHg 92%
    04:00 -8°C° 0.1 mm 6 mps 738 mmHg 91%
    05:00 -9°C° 0.1 mm 7 mps 738 mmHg 90%
    06:00 -11°C° 0.1 mm 7 mps 738 mmHg 88%
    07:00 -11°C° 0.1 mm 7 mps 739 mmHg 88%
    08:00 -12°C° 0.1 mm 7 mps 740 mmHg 87%
    09:00 -12°C° 0.1 mm 7 mps 740 mmHg 86%
    10:00 -12°C° 0.1 mm 7 mps 741 mmHg 85%
    11:00 -11°C° 0.1 mm 6 mps 741 mmHg 84%
    12:00 -11°C° 0.1 mm 6 mps 742 mmHg 83%
    13:00 -11°C° 0.1 mm 6 mps 742 mmHg 83%
    14:00 -12°C° 0.1 mm 6 mps 743 mmHg 83%
    15:00 -12°C° 0.1 mm 6 mps 743 mmHg 83%
    16:00 -14°C° 0 mm 6 mps 744 mmHg 84%
    17:00 -13°C° 0 mm 5 mps 745 mmHg 85%
    18:00 -14°C° 0 mm 5 mps 745 mmHg 86%
    19:00 -15°C° 0 mm 4 mps 746 mmHg 88%
    20:00 -16°C° 0 mm 4 mps 746 mmHg 89%
    21:00 -16°C° 0 mm 3 mps 747 mmHg 91%
    22:00 -16°C° 0 mm 3 mps 747 mmHg 92%
    23:00 -16°C° 0 mm 3 mps 748 mmHg 93%

    23 February, Saturday

    Time Temperature Precipitation Wind Pressure Humidity
    00:00 -17°C° 0 mm 3 mps 748 mmHg 94%
    01:00 -17°C° 0 mm 3 mps 749 mmHg 95%
    02:00 -18°C° 0 mm 3 mps 749 mmHg 95%
    03:00 -18°C° 0 mm 3 mps 749 mmHg 95%
    04:00 -17°C° 0 mm 2 mps 750 mmHg 95%
    05:00 -18°C° 0 mm 2 mps 750 mmHg 96%
    06:00 -18°C° 0 mm 2 mps 750 mmHg 96%
    07:00 -17°C° 0 mm 2 mps 751 mmHg 96%
    08:00 -17°C° 0 mm 2 mps 751 mmHg 95%
    09:00 -16°C° 0 mm 2 mps 752 mmHg 95%
    10:00 -15°C° 0 mm 2 mps 752 mmHg 93%
    11:00 -14°C° 0 mm 2 mps 753 mmHg 91%
    12:00 -13°C° 0 mm 2 mps 753 mmHg 89%
    13:00 -10°C° 0 mm 1 mps 753 mmHg 88%
    14:00 -10°C° 0 mm 1 mps 753 mmHg 86%
    15:00 -9°C° 0 mm 1 mps 754 mmHg 84%
    16:00 -10°C° 0 mm 1 mps 754 mmHg 86%
    17:00 -10°C° 0 mm 0 mps 754 mmHg 88%
    18:00 -11°C° 0 mm 0 mps 755 mmHg 90%
    19:00 -11°C° 0 mm 0 mps 755 mmHg 91%
    20:00 -11°C° 0 mm 0 mps 756 mmHg 92%
    21:00 -11°C° 0 mm 1 mps 756 mmHg 94%
    22:00 -11°C° 0 mm 1 mps 756 mmHg 94%
    23:00 -11°C° 0 mm 1 mps 756 mmHg 95%

    24 February, Sunday

    Time Temperature Precipitation Wind Pressure Humidity
    00:00 -14°C° 0 mm 2 mps 756 mmHg 95%
    01:00 -14°C° 0 mm 2 mps 757 mmHg 96%
    02:00 -14°C° 0 mm 2 mps 757 mmHg 96%
    03:00 -14°C° 0 mm 2 mps 757 mmHg 96%
    04:00 -15°C° 0 mm 2 mps 757 mmHg 96%
    05:00 -16°C° 0 mm 3 mps 757 mmHg 96%
    06:00 -17°C° 0 mm 3 mps 757 mmHg 96%
    07:00 -16°C° 0 mm 3 mps 757 mmHg 96%
    08:00 -16°C° 0 mm 3 mps 757 mmHg 95%
    09:00 -16°C° 0 mm 3 mps 758 mmHg 95%
    10:00 -15°C° 0 mm 3 mps 758 mmHg 94%
    11:00 -14°C° 0 mm 3 mps 758 mmHg 94%
    12:00 -14°C° 0 mm 4 mps 758 mmHg 93%
    13:00 -14°C° 0 mm 4 mps 758 mmHg 92%
    14:00 -12°C° 0 mm 4 mps 758 mmHg 91%
    15:00 -12°C° 0 mm 4 mps 758 mmHg 90%
    16:00 -12°C° 0 mm 4 mps 758 mmHg 91%
    17:00 -13°C° 0 mm 3 mps 758 mmHg 92%
    18:00 -14°C° 0 mm 3 mps 758 mmHg 93%
    19:00 -15°C° 0 mm 3 mps 759 mmHg 93%
    20:00 -15°C° 0 mm 3 mps 759 mmHg 94%
    21:00 -16°C° 0 mm 3 mps 759 mmHg 94%
    22:00 -15°C° 0 mm 2 mps 759 mmHg 94%
    23:00 -15°C° 0 mm 2 mps 759 mmHg 94%
    Show more